sat.trackr.live / text

‹ back to catalog

STARLINK-3297

NORAD 50159 · 2021-125D

PAYLOAD ACTIVE UNKNOWN

§ Identity

Operator
Country
US
Launch date
2021-12-18
Launch site
AFWTR
Launch vehicle
Mass (kg)
RCS (m²)

Purposes: comms

External: N2YO · Heavens-Above · Gunter

§ Orbital elements

Epoch: 2026-09-19T22:07:36.905952Z

Period
93.90 min
Inclination
53.1585°
Eccentricity
0.0001074
Mean motion
15.33542334 rev/d
Perigee alt
464.5 km
Apogee alt
466.0 km
Semi-major
6,843.4 km
B*
-2.9413e-5
RAAN
94.7232°
Arg perigee
91.1806°
Mean anomaly
268.9319°
Rev number
26,594

§ Raw data

STARLINK-32971 50159U 21125D   26262.92195493 -.00001339  00000+0 -29413-4 0  99912 50159  53.1585  94.7232 0001074  91.1806 268.9319 15.33542334265940

JSON: /api/v1/satellites/50159 · /tle

For live sub-satellite position, see the globe view (requires WebGL).

§ Visibility from observer

Set your observer location to see the next 7 days of passes ≥ 10°. The values pass through the URL so the page stays shareable.

No JS? Fill the form by hand. The geolocation button needs JavaScript.